Weather History for Roseau, MN

Change the Weather History Date:

Friday, August 23, 2013

  Actual Average Record
Temperature  
Mean Temperature 65 °F -  
Max Temperature 84 °F 74 °F 90 °F (1948)
Min Temperature 46 °F 50 °F 32 °F (1977)
Growing Degree Days 15 (Base 50)    
Moisture  
Dew Point 52 °F    
Average Humidity 61    
Maximum Humidity 87    
Minimum Humidity 29    
Precipitation  
Precipitation 0.00 in - - ()
Sea Level Pressure  
Sea Level Pressure 30.04 in    
Wind  
Wind Speed 6 mph (SSE)    
Max Wind Speed 15 mph    
Max Gust Speed 17 mph    
Visibility 10 miles    
Events      
Averages and records for this station are not official NWS values.
T = Trace of Precipitation, MM = Missing Value Source: NWS Daily Summary

Daily Weather History Graph

Daily Weather History Graph

Search for Another Location

Airport:

Trip Planner

Search our weather history database for the weather conditions in past years. The results will help you decide how hot, cold, wet, or windy it might be!

Date:

Astronomy

Aug. 23, 2013 Rise Set
Actual Time 6:27 AM CDT 8:22 PM CDT
Civil Twilight 5:53 AM CDT 8:56 PM CDT
Nautical Twilight 5:11 AM CDT 9:37 PM CDT
Astronomical Twilight 4:25 AM CDT 10:23 PM CDT
Moon 9:19 PM CDT (8/23) 9:44 AM CDT (8/23)
Length of Visible Light 15h 02m
Length of Day
13h 55m
Waning Gibbous, 91% of the Moon is Illuminated
Aug 23
Waning Gibbous
Aug 28
Last Quarter
Sep 5
New
Sep 12
First Quarter
Sep 19
Full

Hourly Weather History & Observations

Time (CDT) Temp. Windchill Dew Point Humidity Pressure Visibility Wind Dir Wind Speed Gust Speed Precip Events Conditions
12:14 AM 51.8 °F - 44.6 °F 76% 30.14 in 10.0 mi SE 3.5 mph - N/A   Clear
12:35 AM 51.8 °F - 44.6 °F 76% 30.14 in 10.0 mi SSE 4.6 mph - N/A   Clear
12:54 AM 51.8 °F - 44.6 °F 76% 30.14 in 10.0 mi SSE 4.6 mph - N/A   Clear
1:14 AM 48.2 °F - 44.6 °F 87% 30.14 in 10.0 mi SSE 3.5 mph - N/A   Clear
1:35 AM 48.2 °F - 44.6 °F 87% 30.14 in 10.0 mi South 4.6 mph - N/A   Clear
1:54 AM 50.0 °F - 44.6 °F 82% 30.14 in 10.0 mi South 3.5 mph - N/A   Clear
2:14 AM 51.8 °F - 44.6 °F 76% 30.13 in 10.0 mi Calm Calm - N/A   Clear
2:35 AM 50.0 °F - 44.6 °F 82% 30.13 in 10.0 mi Calm Calm - N/A   Clear
2:54 AM 50.0 °F - 44.6 °F 82% 30.13 in 10.0 mi South 3.5 mph - N/A   Clear
3:14 AM 48.2 °F - 42.8 °F 82% 30.13 in 10.0 mi Calm Calm - N/A   Clear
3:35 AM 48.2 °F - 42.8 °F 82% 30.13 in 10.0 mi Calm Calm - N/A   Clear
3:54 AM 48.2 °F - 42.8 °F 82% 30.12 in 10.0 mi SSE 4.6 mph - N/A   Clear
4:14 AM 50.0 °F - 44.6 °F 82% 30.12 in 10.0 mi SSE 5.8 mph - N/A   Clear
4:35 AM 46.4 °F 44.3 °F 42.8 °F 87% 30.11 in 10.0 mi South 4.6 mph - N/A   Clear
4:54 AM 48.2 °F - 42.8 °F 82% 30.12 in 10.0 mi SSW 3.5 mph - N/A   Clear
5:14 AM 48.2 °F - 42.8 °F 82% 30.12 in 10.0 mi South 6.9 mph - N/A   Clear
5:35 AM 48.2 °F - 42.8 °F 82% 30.12 in 10.0 mi South 5.8 mph - N/A   Clear
5:54 AM 48.2 °F - 42.8 °F 82% 30.12 in 10.0 mi South 4.6 mph - N/A   Clear
6:14 AM 48.2 °F - 42.8 °F 82% 30.12 in 10.0 mi South 4.6 mph - N/A   Clear
6:34 AM 48.2 °F - 42.8 °F 82% 30.12 in 10.0 mi South 3.5 mph - N/A   Clear
6:54 AM 48.2 °F - 44.6 °F 87% 30.12 in 10.0 mi South 3.5 mph - N/A   Clear
7:14 AM 50.0 °F - 44.6 °F 82% 30.12 in 10.0 mi South 3.5 mph - N/A   Clear
7:34 AM 51.8 °F - 46.4 °F 82% 30.12 in 10.0 mi South 4.6 mph - N/A   Clear
7:54 AM 55.4 °F - 48.2 °F 77% 30.12 in 10.0 mi South 4.6 mph - N/A   Clear
8:14 AM 59.0 °F - 51.8 °F 77% 30.11 in 10.0 mi South 3.5 mph - N/A   Clear
8:34 AM 62.6 °F - 53.6 °F 72% 30.11 in 10.0 mi Calm Calm - N/A   Clear
8:54 AM 64.4 °F - 53.6 °F 68% 30.11 in 10.0 mi South 4.6 mph - N/A   Clear
9:14 AM 66.2 °F - 53.6 °F 64% 30.10 in 10.0 mi South 8.1 mph - N/A   Clear
9:34 AM 69.8 °F - 53.6 °F 56% 30.09 in 10.0 mi South 10.4 mph - N/A   Clear
9:54 AM 71.6 °F - 53.6 °F 53% 30.09 in 10.0 mi South 9.2 mph - N/A   Clear
10:14 AM 73.4 °F - 51.8 °F 47% 30.09 in 10.0 mi South 11.5 mph - N/A   Clear
10:34 AM 75.2 °F - 53.6 °F 47% 30.08 in 10.0 mi South 10.4 mph - N/A   Clear
10:54 AM 75.2 °F - 53.6 °F 47% 30.08 in 10.0 mi South 10.4 mph - N/A   Clear
11:14 AM 77.0 °F - 51.8 °F 41% 30.07 in 10.0 mi SSE 12.7 mph - N/A   Clear
11:34 AM 78.8 °F - 53.6 °F 42% 30.07 in 10.0 mi South 11.5 mph - N/A   Clear
11:54 AM 78.8 °F - 53.6 °F 42% 30.07 in 10.0 mi South 11.5 mph 17.3 mph N/A   Clear
12:14 PM 78.8 °F - 51.8 °F 39% 30.06 in 10.0 mi SSE 11.5 mph 17.3 mph N/A   Clear
12:34 PM 80.6 °F - 51.8 °F 37% 30.05 in 10.0 mi South 9.2 mph - N/A   Clear
12:54 PM 80.6 °F - 51.8 °F 37% 30.05 in 10.0 mi South 10.4 mph 17.3 mph N/A   Clear
1:14 PM 80.6 °F - 51.8 °F 37% 30.04 in 10.0 mi South 10.4 mph - N/A   Clear
1:34 PM 82.4 °F - 48.2 °F 30% 30.03 in 10.0 mi SSE 11.5 mph 17.3 mph N/A   Clear
1:54 PM 82.4 °F - 48.2 °F 30% 30.03 in 10.0 mi SSE 10.4 mph 16.1 mph N/A   Clear
2:15 PM 82.4 °F - 51.8 °F 35% 30.02 in 10.0 mi SE 10.4 mph - N/A   Clear
2:34 PM 82.4 °F - 50.0 °F 32% 30.01 in 10.0 mi SSE 8.1 mph 11.5 mph N/A   Clear
2:54 PM 84.2 °F - 48.2 °F 29% 30.01 in 10.0 mi South 9.2 mph - N/A   Clear
3:15 PM 84.2 °F - 51.8 °F 33% 30.00 in 10.0 mi South 11.5 mph - N/A   Clear
3:34 PM 84.2 °F - 51.8 °F 33% 29.99 in 10.0 mi South 15.0 mph - N/A   Clear
3:54 PM 84.2 °F - 51.8 °F 33% 29.99 in 10.0 mi SSE 8.1 mph 11.5 mph N/A   Clear
4:14 PM 84.2 °F - 53.6 °F 35% 29.98 in 10.0 mi South 11.5 mph - N/A   Clear
4:34 PM 84.2 °F - 55.4 °F 37% 29.98 in 10.0 mi South 8.1 mph - N/A   Clear
4:54 PM 84.2 °F - 55.4 °F 37% 29.97 in 10.0 mi South 10.4 mph - N/A   Clear
5:14 PM 82.4 °F - 57.2 °F 42% 29.97 in 10.0 mi SE 9.2 mph - N/A   Clear
5:34 PM 84.2 °F - 57.2 °F 40% 29.97 in 10.0 mi SSE 12.7 mph - N/A   Clear
5:54 PM 84.2 °F - 57.2 °F 40% 29.96 in 10.0 mi SSE 11.5 mph - N/A   Clear
6:14 PM 82.4 °F - 59.0 °F 45% 29.96 in 10.0 mi SSE 11.5 mph - N/A   Clear
6:34 PM 82.4 °F - 60.8 °F 48% 29.96 in 10.0 mi SSE 11.5 mph - N/A   Clear
6:54 PM 80.6 °F - 60.8 °F 51% 29.96 in 7.0 mi SSE 9.2 mph - N/A   Clear
7:14 PM 78.8 °F - 59.0 °F 51% 29.95 in 10.0 mi SSE 8.1 mph - N/A   Clear
7:34 PM 78.8 °F - 60.8 °F 54% 29.95 in 10.0 mi SE 5.8 mph - N/A   Clear
7:54 PM 75.2 °F - 60.8 °F 61% 29.94 in 10.0 mi SE 4.6 mph - N/A   Clear
8:14 PM 73.4 °F - 60.8 °F 65% 29.94 in 10.0 mi SE 6.9 mph - N/A   Clear
8:34 PM 73.4 °F - 60.8 °F 65% 29.93 in 10.0 mi SE 6.9 mph - N/A   Clear
8:54 PM 73.4 °F - 60.8 °F 65% 29.94 in 10.0 mi SE 4.6 mph - N/A   Clear
9:14 PM 73.4 °F - 60.8 °F 65% 29.94 in 10.0 mi SE 6.9 mph - N/A   Clear
9:34 PM 73.4 °F - 60.8 °F 65% 29.94 in 10.0 mi ESE 6.9 mph - N/A   Scattered Clouds
9:54 PM 71.6 °F - 60.8 °F 69% 29.94 in 10.0 mi ESE 6.9 mph - N/A   Clear
10:14 PM 71.6 °F - 60.8 °F 69% 29.94 in 10.0 mi SE 5.8 mph - N/A   Clear
10:34 PM 69.8 °F - 60.8 °F 73% 29.95 in 10.0 mi SE 4.6 mph - N/A   Clear
10:54 PM 66.2 °F - 59.0 °F 78% 29.94 in 10.0 mi SE 4.6 mph - N/A   Clear
11:14 PM 66.2 °F - 59.0 °F 78% 29.94 in 10.0 mi SE 4.6 mph - N/A   Clear
11:34 PM 68.0 °F - 59.0 °F 73% 29.93 in 10.0 mi SE 4.6 mph - N/A   Clear
11:54 PM 69.8 °F - 60.8 °F 73% 29.93 in 10.0 mi ESE 5.8 mph - N/A   Clear